Wind_Speed
18 18 15 19 20 22 19 19 19 19 19 15 16 16 14 12 11 10 9 6 4 4 3 4 3 2 4 6 8 9 7 6 6 8 9 9 11 11 12 13 15 15 14
18 19 12 17 20 20 19 18 16 17 17 18 18 16 14 12 9 9 7 5 5 4 3 4 3 3 4 5 6 6 5 5 6 8 9 10 10 11 12 12 12 13 14
12 8 11 19 19 20 17 14 15 17 17 17 17 17 13 9 8 7 7 6 5 4 4 3 3 4 6 6 7 6 7 7 8 9 9 9 10 12 11 11 11 12 13
5 7 12 19 19 19 16 14 12 12 14 14 16 15 9 7 8 8 8 7 5 4 4 2 3 5 6 6 6 6 6 7 9 10 11 11 11 11 11 10 10 11 12
2 7 14 18 20 19 17 12 6 14 18 13 20 12 10 9 10 10 8 6 5 5 2 0 2 5 4 5 7 8 8 9 10 10 11 12 12 13 13 12 12 11 12
4 8 12 16 18 18 16 12 11 5 16 9 14 12 11 11 11 9 8 6 6 5 2 2 4 4 6 8 8 9 9 9 9 9 10 11 12 13 14 15 15 15 13
10 7 9 11 14 15 19 13 8 8 6 10 13 12 11 12 9 8 7 7 7 5 4 5 7 7 8 7 7 7 8 9 9 10 11 11 12 12 11 12 14 16 17
9 10 11 10 13 13 13 11 9 10 13 12 12 11 11 9 9 9 9 9 8 7 7 8 8 9 9 7 7 8 8 7 8 9 8 9 9 9 10 11 11 13 15
15 14 11 11 13 11 8 9 12 12 10 10 11 10 10 11 11 11 10 10 9 10 10 9 10 10 7 9 8 8 8 7 8 8 10 8 7 8 10 10 11 13 15
16 15 14 13 13 14 15 15 12 12 10 9 10 11 12 13 13 12 11 11 12 12 11 11 10 7 5 7 8 9 9 10 11 11 13 14 11 9 11 13 13 14 15
15 17 18 17 17 17 17 16 15 12 10 11 12 13 14 14 14 13 14 14 14 14 14 12 10 6 2 9 12 10 11 11 10 11 12 13 13 12 11 13 13 14 15
18 19 18 19 19 19 18 16 15 13 13 13 13 14 14 14 14 16 17 17 17 16 15 11 9 7 4 7 13 14 12 10 10 13 16 15 14 16 18 18 17 16 16
19 20 21 21 22 18 16 15 14 14 15 14 14 15 15 16 16 17 19 19 18 15 13 11 9 9 6 1 8 11 14 10 9 13 17 17 17 18 17 17 18 17 16
15 18 21 21 20 19 18 20 21 18 15 14 14 16 17 17 18 18 18 18 16 15 13 10 10 10 9 9 4 8 10 12 10 11 17 18 20 19 17 16 16 18 18
13 15 19 22 21 20 19 19 16 14 15 16 18 20 19 17 16 19 19 17 16 17 17 15 12 11 11 12 12 10 11 13 14 12 16 17 14 17 18 18 17 21 21
17 15 13 16 18 18 19 20 19 18 18 19 21 21 22 25 24 23 22 21 19 17 17 16 16 16 14 15 15 16 17 15 17 18 19 23 18 18 19 19 21 25 22
20 17 17 14 15 15 17 19 19 18 18 20 22 22 24 26 25 23 22 22 21 21 18 18 17 16 16 18 19 19 19 21 21 22 23 24 24 18 18 20 23 23 23
29 24 20 20 15 14 14 17 21 21 19 18 21 23 25 26 26 25 25 26 25 22 19 18 17 19 20 21 21 20 21 23 24 25 27 29 29 28 23 21 25 29 27
32 27 27 25 23 19 17 17 20 22 22 19 20 24 26 29 30 29 30 28 27 25 23 22 20 21 23 24 24 24 24 26 27 28 30 32 33 34 31 29 28 30 35
35 32 29 29 25 24 25 24 24 23 24 24 23 21 22 27 32 34 34 32 31 30 28 27 24 24 24 26 27 28 29 30 30 32 32 33 34 35 36 35 35 34 33
42 37 32 32 32 28 27 31 32 30 27 25 24 23 22 25 27 29 32 32 31 31 31 30 30 30 30 30 32 32 34 34 34 34 35 36 36 36 35 36 39 36 40
37 33 29 33 35 33 32 34 35 38 35 31 28 27 26 26 28 29 30 31 31 33 34 33 32 31 32 32 32 34 35 37 38 38 37 36 38 37 36 37 37 38 41
38 38 42 46 41 43 37 37 39 38 38 36 33 32 30 30 29 27 26 26 27 29 31 31 30 29 30 30 30 33 33 31 34 37 41 40 39 41 39 37 38 39 41
38 34 38 45 50 61 58 43 42 39 37 36 37 37 35 34 32 31 29 28 26 25 26 27 27 28 28 30 32 31 32 32 33 32 38 40 36 37 38 38 37 38 40
26 37 40 39 44 53 68 49 46 39 37 33 34 36 41 39 37 35 33 33 32 32 31 32 32 30 33 33 34 35 36 37 37 34 33 31 31 33 40 38 36 37 40
33 31 37 36 33 14 24 39 40 39 34 32 36 33 34 39 42 42 39 39 37 38 38 34 32 34 35 37 37 36 40 40 39 37 33 33 30 29 39 38 35 35 39
Wind_Direction
274 289 278 210 207 205 201 203 211 212 217 219 215 218 224 233 239 264 278 263 263 253 257 271 279 335 339 348 349 340 331 324 339 340 343 342 348 351 350 356 353 350 351
286 288 223 206 205 197 198 209 211 209 211 209 212 213 218 227 250 266 255 240 237 245 266 262 286 343 352 360 351 340 330 348 334 341 345 345 340 344 351 353 348 346 346
280 238 209 197 195 190 191 205 207 196 193 198 206 217 221 242 249 236 230 221 222 231 250 277 316 344 8 359 359 354 352 339 334 343 340 333 338 347 353 351 340 349 345
254 225 195 182 182 177 186 181 189 192 198 202 205 210 241 237 221 215 209 209 209 227 249 304 335 4 6 13 6 2 350 338 340 339 332 335 343 347 348 347 348 343 345
83 167 166 170 174 175 174 178 197 194 187 198 196 224 235 210 205 204 201 207 205 224 218 65 27 26 15 21 12 7 356 347 348 339 325 338 346 344 342 346 346 346 353
162 142 157 167 168 169 176 165 143 159 164 168 213 240 213 199 199 193 195 199 210 204 186 124 82 56 35 26 17 7 356 350 335 325 338 346 341 343 343 340 340 338 349
185 170 169 170 170 164 174 174 175 194 194 190 225 217 202 194 188 189 193 199 197 178 154 122 88 60 44 34 19 8 10 5 349 345 346 342 348 346 336 331 333 336 341
209 206 186 177 179 182 182 193 213 229 217 206 207 206 192 184 192 190 196 194 178 157 145 114 94 83 62 32 16 10 8 354 343 345 345 344 343 332 333 332 333 331 332
221 210 207 213 204 199 205 231 236 225 214 198 197 192 188 190 197 196 194 178 163 155 136 118 110 96 57 21 8 5 357 343 338 346 345 340 335 341 334 329 332 335 335
221 228 224 202 212 216 232 239 235 221 216 205 191 192 192 193 199 192 183 167 164 152 138 128 121 102 30 4 5 8 358 349 347 352 350 346 346 348 339 339 341 335 332
222 224 223 225 226 230 235 240 232 222 218 209 196 194 193 193 191 182 174 167 165 155 145 141 147 136 57 37 26 17 11 356 355 350 0 356 345 342 341 331 331 335 334
213 225 233 228 231 238 240 239 226 219 215 202 194 194 192 192 185 178 174 172 170 162 157 154 167 181 145 45 38 35 28 22 17 8 4 359 348 340 341 336 337 339 337
223 216 220 230 230 227 226 222 221 219 213 201 192 190 190 187 182 180 178 174 174 171 176 180 182 207 223 2 24 15 16 15 23 28 16 3 4 360 348 340 337 334 327
230 229 225 228 231 223 216 214 211 204 204 206 196 191 191 186 184 182 180 180 183 187 195 200 209 224 238 250 295 349 340 346 360 3 5 16 14 6 2 353 340 332 329
224 223 227 232 236 230 216 213 208 200 203 204 200 195 194 186 185 188 191 190 196 206 215 224 227 234 246 260 269 287 310 319 323 327 339 350 353 359 2 3 356 348 334
225 227 228 233 237 235 226 213 205 202 204 206 207 200 191 189 191 190 195 201 211 223 231 239 242 249 260 268 276 278 280 293 305 309 314 321 332 339 349 348 351 351 341
232 233 236 235 236 240 234 224 216 209 209 210 211 208 204 207 209 207 210 215 222 231 239 245 253 260 262 267 274 277 279 276 286 296 296 300 310 321 331 341 345 340 340
243 243 245 241 244 241 238 229 222 215 215 217 218 218 218 221 223 221 224 231 238 244 250 255 260 265 268 269 273 277 275 276 278 283 289 291 297 302 310 324 328 329 324
239 245 251 252 243 240 239 235 230 224 217 217 224 226 226 226 229 229 230 236 244 250 256 259 262 268 273 275 277 275 274 274 277 278 280 283 289 295 298 303 307 320 315
245 250 241 245 250 250 245 242 238 235 230 223 222 228 234 239 237 239 240 243 249 254 258 263 268 271 275 278 279 279 277 276 276 278 281 281 283 288 292 295 295 302 304
235 240 234 236 237 240 246 248 247 243 241 240 239 234 237 243 242 244 247 249 252 253 257 263 270 273 275 274 275 278 279 277 276 276 277 281 283 284 289 291 291 294 297
226 224 232 235 240 240 243 252 253 248 243 237 236 237 237 242 245 245 248 252 255 260 264 269 272 275 275 275 274 273 276 276 275 275 275 278 280 283 285 288 293 293 292
235 243 243 262 257 246 237 243 246 247 244 242 241 238 239 242 246 252 254 255 256 259 263 265 268 269 271 274 271 270 271 274 270 273 275 276 277 282 285 285 288 290 292
244 240 247 245 273 247 244 235 238 242 243 241 243 243 245 245 247 247 250 254 258 263 265 268 270 270 270 266 266 267 270 269 266 262 262 264 268 279 283 282 284 288 288
260 241 246 254 271 252 259 234 235 239 242 242 248 249 247 247 246 248 251 254 255 262 267 269 270 271 270 264 263 265 269 270 269 270 271 266 273 283 283 277 277 281 286
239 241 247 249 253 251 212 220 233 236 243 243 247 251 252 248 246 248 250 252 255 260 268 271 270 265 265 265 264 264 265 270 277 281 275 265 269 279 287 282 279 280 282
Height
3170 3171 3170 3173 3177 3180 3184 3187 3190 3194 3196 3195 3201 3204 3206 3207 3208 3208 3208 3208 3207 3207 3208 3208 3207 3206 3206 3205 3203 3203 3202 3200 3200 3199 3199 3197 3195 3194 3191 3189 3187 3185 3182
3167 3166 3166 3170 3175 3179 3183 3186 3189 3192 3194 3197 3200 3202 3203 3205 3207 3206 3206 3206 3206 3206 3207 3208 3206 3205 3205 3204 3202 3201 3201 3200 3199 3198 3198 3196 3194 3193 3192 3190 3187 3184 3182
3165 3165 3166 3169 3173 3177 3181 3184 3187 3190 3192 3196 3198 3200 3202 3203 3204 3204 3204 3204 3205 3205 3206 3207 3205 3204 3203 3203 3202 3202 3201 3200 3199 3199 3197 3195 3194 3192 3191 3190 3186 3185 3182
3164 3163 3164 3169 3173 3177 3180 3184 3187 3190 3192 3194 3196 3197 3200 3200 3201 3202 3202 3203 3203 3205 3206 3205 3204 3204 3204 3203 3202 3202 3201 3200 3198 3197 3196 3194 3192 3191 3189 3188 3186 3183 3182
3165 3165 3167 3170 3174 3177 3181 3184 3186 3188 3190 3192 3193 3197 3198 3199 3199 3200 3201 3202 3202 3205 3204 3204 3204 3204 3203 3202 3202 3202 3201 3200 3198 3195 3193 3191 3190 3188 3186 3184 3184 3183 3181
3167 3168 3169 3172 3175 3178 3181 3185 3186 3188 3190 3193 3195 3195 3197 3197 3198 3198 3200 3201 3204 3204 3203 3203 3203 3203 3204 3204 3203 3202 3201 3199 3196 3194 3193 3190 3187 3185 3182 3180 3179 3179 3178
3168 3169 3171 3174 3176 3179 3182 3184 3186 3189 3189 3191 3193 3193 3195 3195 3196 3197 3200 3202 3203 3202 3203 3204 3202 3203 3204 3203 3202 3200 3199 3197 3195 3193 3192 3189 3188 3186 3183 3180 3177 3174 3173
3167 3169 3171 3174 3176 3179 3182 3184 3186 3187 3189 3189 3190 3192 3192 3193 3194 3196 3199 3202 3201 3201 3203 3203 3203 3204 3204 3203 3201 3199 3197 3195 3193 3191 3189 3187 3185 3184 3183 3181 3178 3175 3172
3166 3168 3171 3173 3176 3178 3181 3183 3184 3187 3187 3187 3189 3189 3190 3192 3193 3197 3199 3199 3199 3201 3202 3202 3203 3203 3205 3203 3200 3198 3196 3194 3193 3190 3188 3186 3184 3183 3182 3180 3177 3175 3172
3164 3168 3170 3173 3175 3177 3180 3181 3181 3183 3184 3184 3186 3187 3189 3191 3194 3195 3197 3197 3199 3200 3201 3201 3202 3204 3205 3203 3201 3198 3197 3196 3195 3191 3187 3185 3184 3182 3180 3180 3178 3174 3171
3163 3166 3168 3169 3173 3175 3177 3178 3179 3180 3180 3181 3183 3185 3188 3190 3192 3193 3194 3196 3198 3199 3199 3199 3202 3204 3205 3204 3202 3199 3197 3196 3194 3191 3187 3185 3182 3180 3178 3176 3174 3172 3171
3161 3164 3165 3168 3169 3171 3173 3175 3176 3177 3178 3179 3181 3184 3186 3188 3190 3191 3192 3194 3196 3197 3197 3199 3201 3204 3205 3204 3202 3199 3198 3196 3193 3191 3189 3186 3183 3180 3178 3176 3173 3171 3168
3158 3161 3164 3165 3166 3167 3169 3171 3172 3175 3177 3178 3180 3182 3184 3186 3188 3189 3190 3192 3195 3196 3197 3198 3200 3202 3203 3203 3201 3200 3198 3196 3194 3191 3189 3187 3183 3180 3177 3174 3172 3169 3165
3155 3158 3160 3162 3164 3165 3167 3169 3170 3172 3174 3176 3178 3180 3182 3184 3185 3188 3189 3191 3193 3194 3195 3196 3198 3200 3201 3200 3199 3198 3197 3196 3194 3191 3190 3187 3183 3180 3176 3172 3169 3166 3162
3154 3155 3156 3159 3161 3163 3164 3166 3167 3168 3170 3172 3174 3176 3179 3182 3184 3185 3187 3189 3190 3191 3192 3193 3195 3197 3197 3196 3196 3195 3194 3192 3190 3188 3187 3184 3180 3176 3173 3170 3167 3163 3160
3150 3152 3153 3155 3158 3160 3161 3162 3163 3165 3167 3169 3170 3174 3175 3177 3178 3180 3183 3184 3185 3187 3189 3191 3192 3193 3193 3192 3192 3191 3190 3188 3186 3184 3182 3180 3176 3173 3170 3167 3164 3161 3157
3147 3150 3152 3152 3154 3156 3158 3160 3161 3163 3164 3165 3168 3170 3173 3176 3177 3178 3180 3182 3183 3184 3185 3186 3187 3188 3189 3188 3187 3186 3185 3183 3181 3179 3177 3174 3171 3169 3166 3164 3161 3158 3154
3144 3146 3149 3150 3152 3153 3156 3157 3159 3160 3161 3163 3165 3167 3169 3171 3173 3174 3176 3177 3178 3180 3182 3183 3183 3183 3183 3183 3182 3181 3180 3177 3175 3173 3171 3168 3166 3163 3161 3159 3156 3153 3149
3138 3142 3145 3148 3149 3151 3153 3154 3156 3157 3158 3160 3161 3162 3164 3166 3167 3168 3169 3171 3173 3175 3177 3178 3178 3178 3177 3177 3175 3174 3173 3171 3169 3166 3165 3162 3160 3158 3155 3152 3148 3146 3143
3131 3135 3138 3142 3145 3148 3149 3150 3152 3154 3155 3155 3156 3158 3159 3159 3161 3162 3164 3166 3168 3169 3170 3171 3172 3172 3171 3170 3168 3166 3165 3164 3162 3160 3158 3155 3152 3150 3148 3145 3142 3139 3135
3121 3124 3126 3134 3138 3139 3143 3145 3147 3148 3149 3151 3152 3153 3154 3153 3154 3155 3157 3159 3160 3161 3162 3163 3164 3163 3163 3161 3159 3157 3155 3154 3153 3151 3149 3147 3144 3142 3141 3138 3134 3133 3128
3108 3110 3118 3124 3127 3128 3132 3138 3140 3141 3142 3143 3144 3146 3147 3147 3147 3148 3149 3151 3153 3153 3153 3153 3153 3153 3152 3151 3150 3147 3145 3143 3141 3140 3139 3138 3135 3133 3131 3128 3125 3123 3118
3088 3103 3108 3112 3117 3118 3114 3121 3127 3130 3131 3134 3136 3137 3138 3140 3140 3141 3142 3143 3143 3144 3143 3143 3143 3142 3141 3140 3138 3136 3133 3131 3130 3129 3127 3126 3125 3123 3121 3118 3115 3113 3110
3093 3098 3104 3108 3107 3106 3106 3104 3117 3121 3120 3122 3126 3128 3129 3130 3133 3133 3133 3133 3134 3134 3134 3134 3134 3133 3132 3129 3126 3125 3123 3120 3118 3114 3111 3110 3111 3112 3112 3108 3106 3103 3100
3087 3092 3092 3093 3092 3085 3094 3099 3110 3111 3110 3110 3115 3118 3119 3120 3122 3123 3124 3124 3125 3125 3125 3125 3124 3124 3122 3119 3116 3114 3112 3109 3106 3104 3102 3100 3100 3099 3099 3096 3095 3093 3091
3080 3082 3082 3085 3088 3085 3083 3094 3099 3100 3098 3100 3104 3107 3108 3109 3111 3112 3112 3113 3114 3115 3115 3115 3114 3111 3109 3107 3105 3102 3101 3099 3097 3095 3092 3090 3088 3085 3086 3087 3085 3084 3081